Regional Weather Roundup
Issued by NWS

Home | Current Version | Previous Version | Graphics & Text | Print | Product List | Glossary On
Versions: 1 2 3 4 5 6 7 8 9 10 11 12 13 14 15 16 17 18 19 20 21 22 23 24 25 26 27 28 29 30 31 32 33 34 35 36 37 38 39 40 41 42 43 44 45 46 47 48 49 50
121
ASUS44 KJAN 230303
RWRMS

MISSISSIPPI HOURLY WEATHER ROUNDUP
NATIONAL WEATHER SERVICE JACKSON MS
1000 PM CDT TUE JUL 22 2014

NOTE: "FAIR: INDICATES FEW OR NO CLOUDS BELOW 12,000 FEET WITH NO
SIGNIFICANT WEATHER AND/OR OBSTRUCTIONS TO VISIBILITY.

MSZ001>002-007>008-010>013-018>021-025>028-034>036-230400-
NORTHWEST MISSISSIPPI

CITY           SKY/WX    TMP DP  RH WIND       PRES   REMARKS
CLARKSDALE     FAIR      77  77 100 CALM      30.06R
CLEVELAND      FAIR      77  76  95 CALM      30.05R
GREENWOOD      LGT RAIN  75  72  90 NE7       30.07R FOG
GREENVILLE     PTCLDY    79  73  82 CALM      30.05R
GRENADA        CLOUDY    73  70  88 S20G25    30.06R THUNDER VSB 3/4
OLIVE BRANCH   CLEAR     79  75  89 CALM      30.07R
OXFORD         FAIR      77  73  88 CALM      30.08R
TUNICA         PTCLDY    77  72  83 CALM      30.06R
$$

MSZ003>006-009-014>017-022>024-029>033-037>039-230400-
NORTHEAST MISSISSIPPI

CITY           SKY/WX    TMP DP  RH WIND       PRES   REMARKS
BELMONT        FAIR      73  72  96 CALM      30.09R
COLUMBUS AFB   PTCLDY    75  75 100 E2        30.08R
CORINTH        FAIR      77  72  83 S3        30.07S
GOLDN TRIANGLE PTCLDY    75  72  88 NE3       30.08R
STARKVILLE     FAIR      77  73  88 CALM      30.07R
TUPELO         PTCLDY    78  74  87 S5        30.07R
$$

MSZ040-058-230400-
CENTRAL MISSISSIPPI

CITY           SKY/WX    TMP DP  RH WIND       PRES   REMARKS
JACKSON INTL   TSTM      76  71  85 CALM      30.06S
JACKSON HAWKNS PTCLDY    76  68  76 CALM      30.07S
MERIDIAN KEY   CLOUDY    71  70  96 SW5       30.09R
MERIDIAN NAS   CLOUDY    74  72  93 CALM      30.08R
RAYMOND        FAIR      73  68  83 NW3       30.05F
VICKSBURG      MOCLDY    74  71  91 CALM      30.04F
$$

MSZ059>079-230400-
SOUTH MISSISSIPPI

CITY           SKY/WX    TMP DP  RH WIND       PRES   REMARKS
BROOKHAVEN     FAIR      72  70  94 CALM      30.08R FOG
COLUMBIA       FAIR      70  70 100 CALM      30.04R FOG
HATTIESBURG    FOG       70  69  97 CALM      30.06R VSB 3/4
MCCOMB         CLOUDY    73  70  90 N3        30.05F
NATCHEZ        MOCLDY    79  73  83 NE3       30.04F
PINE BELT      CLOUDY    70  66  88 CALM      30.07R
$$

MSZ080>082-230400-
COASTAL MISSISSIPPI

CITY           SKY/WX    TMP DP  RH WIND       PRES   REMARKS
BILOXI         NOT AVBL
PASCAGOULA     CLEAR     74  72  93 CALM      30.05R
GULFPORT       MOCLDY    77  69  76 NE8       30.04R
$$



USA.gov is the U.S. government's official web portal to all federal, state and local government web resources and services.